TimeEST,TemperatureF,Dew PointF,Humidity,Sea Level PressureIn,VisibilityMPH,Wind Direction,Wind SpeedMPH,Gust SpeedMPH,PrecipitationIn,Events,Conditions,WindDirDegrees,DateUTC
12:53 AM,27.0,19.0,72,30.08,10.0,Calm,Calm,-,N/A,,Partly Cloudy,0,2013-03-05 05:53:00
2:53 AM,28.0,19.9,72,30.06,10.0,Calm,Calm,-,N/A,,Overcast,0,2013-03-05 07:53:00
3:53 AM,28.0,21.0,75,30.04,10.0,Calm,Calm,-,N/A,,Overcast,0,2013-03-05 08:53:00
4:53 AM,28.9,21.0,72,30.04,10.0,Calm,Calm,-,N/A,,Overcast,0,2013-03-05 09:53:00
5:53 AM,28.9,21.0,72,30.04,10.0,Calm,Calm,-,N/A,,Overcast,0,2013-03-05 10:53:00
6:53 AM,27.0,21.0,78,30.04,10.0,NNE,3.5,-,N/A,,Mostly Cloudy,20,2013-03-05 11:53:00
7:53 AM,28.9,21.0,72,30.03,10.0,Calm,Calm,-,N/A,,Partly Cloudy,0,2013-03-05 12:53:00
8:53 AM,33.1,21.0,61,30.01,10.0,Calm,Calm,-,N/A,,Clear,0,2013-03-05 13:53:00
9:53 AM,36.0,21.9,57,29.99,10.0,Calm,Calm,-,N/A,,Overcast,0,2013-03-05 14:53:00
10:53 AM,37.9,23.0,55,29.97,10.0,NNE,5.8,-,N/A,,Overcast,30,2013-03-05 15:53:00
11:53 AM,39.0,26.1,60,29.95,10.0,NNE,8.1,-,N/A,,Mostly Cloudy,20,2013-03-05 16:53:00
12:53 PM,44.1,24.1,45,29.90,10.0,Variable,5.8,-,N/A,,Partly Cloudy,0,2013-03-05 17:53:00
1:53 PM,48.0,25.0,41,29.84,10.0,Calm,Calm,-,N/A,,Partly Cloudy,0,2013-03-05 18:53:00
2:53 PM,50.0,28.9,44,29.80,10.0,Variable,3.5,-,N/A,,Clear,0,2013-03-05 19:53:00
3:53 PM,50.0,30.9,48,29.77,10.0,NE,5.8,-,N/A,,Overcast,50,2013-03-05 20:53:00
4:53 PM,50.0,33.1,52,29.73,10.0,NE,4.6,-,N/A,,Overcast,50,2013-03-05 21:53:00
5:53 PM,50.0,33.1,52,29.68,10.0,East,4.6,-,N/A,,Mostly Cloudy,80,2013-03-05 22:53:00
6:53 PM,48.9,30.9,50,29.66,10.0,East,11.5,17.3,N/A,,Overcast,90,2013-03-05 23:53:00
7:53 PM,48.0,28.0,46,29.62,10.0,ESE,8.1,-,N/A,,Overcast,110,2013-03-06 00:53:00
8:53 PM,44.1,35.1,71,29.62,6.0,ESE,11.5,24.2,0.02,Rain,Light Rain,110,2013-03-06 01:53:00
9:53 PM,39.9,35.1,83,29.62,6.0,East,10.4,-,0.06,Rain,Rain,100,2013-03-06 02:53:00
10:53 PM,37.0,34.0,89,29.60,6.0,East,8.1,-,0.14,Rain,Rain,100,2013-03-06 03:53:00
11:47 PM,33.8,32.0,93,29.59,2.5,NE,4.6,-,0.08,Snow,Light Snow,50,2013-03-06 04:47:00
11:53 PM,33.1,30.9,92,29.60,1.8,ENE,3.5,-,0.09,Snow,Light Snow,70,2013-03-06 04:53:00